Location: Sobotiste
(48.7170°N, 17.4000°E)
Time: 22:02:06
(UTC+02:00)

N. Korean satellite - Visible Passes

Search period start: 19 October 2017 00:00
Search period end: 29 October 2017 00:00
Orbit: 459 x 517 km, 97.2° (Epoch: 18 October)

Date Brightness Start Highest point End Pass type
(mag) Time Alt. Az. Time Alt. Az. Time Alt. Az.
19 Oct 10.5 06:34:40 10° ENE 06:35:31 11° E 06:36:22 10° ESE visible
19 Oct 6.5 18:45:47 10° SSE 18:49:18 90° WSW 18:52:49 10° NNW visible
20 Oct 6.8 18:22:38 10° SE 18:26:01 46° ENE 18:29:22 10° N visible
20 Oct 9.9 19:57:59 10° WSW 19:59:48 14° W 20:01:38 10° WNW visible
21 Oct 9.0 19:33:23 10° SSW 19:36:17 24° W 19:39:11 10° NW visible
22 Oct 7.7 19:09:29 10° S 19:12:50 44° W 19:16:12 10° NNW visible
23 Oct 10.4 06:34:39 10° ENE 06:35:40 11° E 06:36:42 10° ESE visible
23 Oct 6.5 18:45:58 10° SSE 18:49:28 89° W 18:52:56 10° NNW visible
24 Oct 6.7 18:22:47 10° SSE 18:26:08 46° ENE 18:29:29 10° N visible
24 Oct 9.9 19:58:11 10° WSW 19:59:56 13° W 20:01:42 10° WNW visible
25 Oct 9.0 19:33:33 10° SSW 19:36:24 23° W 19:39:16 10° NW visible
26 Oct 9.7 06:56:41 10° NE 06:59:21 20° E 07:02:02 10° SE visible
26 Oct 7.7 19:09:36 10° S 19:12:57 44° W 19:16:17 10° NNW visible
27 Oct 10.3 06:34:37 10° ENE 06:35:48 11° E 06:36:58 10° ESE visible
27 Oct 6.4 18:46:05 10° SSE 18:49:32 88° WSW 18:53:01 10° NNW visible
28 Oct 6.7 18:22:53 10° SSE 18:26:13 47° ENE 18:29:33 10° N visible
28 Oct 9.9 19:58:20 10° WSW 20:00:02 13° W 20:01:43 10° WNW visible
